�������l�o���
Date,Time,MP-1(��Sv/h),MP-2(��Sv/h),MP-3(��Sv/h),MP-4(��Sv/h),MP-5(��Sv/h),MP-6(��Sv/h),MP-7(��Sv/h),MP-8(��Sv/h),����,����(m/s),���J
2023/11/04,00:00,0.528,0.801,0.497,1.007,0.728,0.320,0.572,0.532,��쐼,3.7,��
2023/11/04,00:10,0.528,0.801,0.496,1.006,0.726,0.320,0.573,0.531,��쐼,3.7,��
2023/11/04,00:20,0.528,0.801,0.498,1.007,0.729,0.319,0.573,0.533,��쐼,3.7,��
2023/11/04,00:30,0.528,0.800,0.496,1.004,0.728,0.319,0.573,0.533,��쐼,5.0,��
2023/11/04,00:40,0.529,0.800,0.495,1.006,0.728,0.320,0.573,0.532,��쐼,5.8,��
2023/11/04,00:50,0.529,0.800,0.496,1.004,0.728,0.320,0.572,0.533,��쐼,4.5,��
2023/11/04,01:00,0.528,0.802,0.496,1.007,0.730,0.320,0.572,0.533,��쐼,5.2,��
2023/11/04,01:10,0.529,0.800,0.497,1.006,0.728,0.319,0.573,0.531,��쐼,6.2,��
2023/11/04,01:20,0.529,0.803,0.495,1.006,0.728,0.320,0.574,0.531,�쐼,5.2,��
2023/11/04,01:30,0.529,0.799,0.496,1.006,0.729,0.319,0.572,0.534,��쐼,5.0,��
2023/11/04,01:40,0.528,0.801,0.495,1.005,0.728,0.319,0.573,0.532,�쐼,5.6,��
2023/11/04,01:50,0.530,0.801,0.495,1.004,0.730,0.319,0.574,0.530,�쐼,4.1,��
2023/11/04,02:00,0.529,0.800,0.495,1.007,0.727,0.319,0.573,0.532,�쐼,3.4,��
2023/11/04,02:10,0.527,0.798,0.497,1.006,0.728,0.319,0.573,0.531,�쐼,2.0,��
2023/11/04,02:20,0.527,0.801,0.496,1.007,0.728,0.318,0.573,0.533,�쐼,1.4,��
2023/11/04,02:30,0.528,0.799,0.495,1.005,0.728,0.319,0.574,0.532,��,1.7,��
2023/11/04,02:40,0.529,0.801,0.496,1.005,0.728,0.319,0.572,0.532,��쓌,1.2,��
2023/11/04,02:50,0.531,0.800,0.495,1.005,0.728,0.319,0.573,0.531,��쐼,1.1,��
2023/11/04,03:00,0.528,0.801,0.496,1.003,0.727,0.320,0.571,0.532,��쐼,1.2,��
2023/11/04,03:10,0.527,0.799,0.495,1.007,0.728,0.319,0.571,0.531,��쐼,3.2,��
2023/11/04,03:20,0.529,0.801,0.495,1.008,0.730,0.320,0.572,0.532,�쐼,4.0,��
2023/11/04,03:30,0.529,0.799,0.496,1.005,0.726,0.320,0.573,0.532,�쐼,5.1,��
2023/11/04,03:40,0.526,0.802,0.495,1.006,0.728,0.319,0.573,0.532,�쐼,3.4,��
2023/11/04,03:50,0.528,0.801,0.495,1.005,0.727,0.319,0.573,0.532,�쐼,3.4,��
2023/11/04,04:00,0.527,0.800,0.496,1.006,0.729,0.319,0.571,0.533,�쐼,3.3,��
2023/11/04,04:10,0.527,0.800,0.495,1.008,0.727,0.319,0.572,0.532,��쐼,3.4,��
2023/11/04,04:20,0.527,0.801,0.494,1.005,0.727,0.321,0.571,0.531,��쐼,3.0,��
2023/11/04,04:30,0.528,0.799,0.496,1.006,0.728,0.320,0.572,0.535,��쐼,3.0,��
2023/11/04,04:40,0.528,0.799,0.496,1.002,0.726,0.319,0.572,0.532,��쐼,2.8,��
2023/11/04,04:50,0.526,0.798,0.497,1.008,0.727,0.319,0.572,0.530,��,2.9,��
2023/11/04,05:00,0.528,0.799,0.496,1.008,0.728,0.319,0.572,0.531,��쐼,2.8,��
2023/11/04,05:10,0.528,0.801,0.497,1.006,0.728,0.319,0.572,0.532,��쐼,3.1,��
2023/11/04,05:20,0.528,0.800,0.495,1.005,0.726,0.319,0.572,0.533,��,3.8,��
2023/11/04,05:30,0.527,0.801,0.495,1.006,0.727,0.318,0.571,0.532,��쐼,3.1,��
2023/11/04,05:40,0.528,0.800,0.495,1.005,0.727,0.320,0.572,0.532,��,2.3,��
2023/11/04,05:50,0.528,0.799,0.495,1.007,0.725,0.319,0.573,0.533,��쓌,3.0,��
2023/11/04,06:00,0.527,0.800,0.495,1.003,0.726,0.319,0.573,0.532,��,2.6,��
2023/11/04,06:10,0.527,0.801,0.495,1.004,0.726,0.318,0.572,0.533,��쐼,2.0,��
2023/11/04,06:20,0.527,0.800,0.495,1.005,0.726,0.320,0.572,0.532,��쐼,2.3,��
2023/11/04,06:30,0.527,0.800,0.494,1.008,0.729,0.318,0.572,0.531,�쐼,2.3,��
2023/11/04,06:40,0.527,0.800,0.495,1.005,0.727,0.319,0.571,0.532,��,1.9,��
2023/11/04,06:50,0.529,0.799,0.495,1.006,0.726,0.319,0.572,0.531,���k��,1.2,��
2023/11/04,07:00,0.528,0.799,0.494,1.006,0.727,0.320,0.572,0.531,�k,2.0,��
2023/11/04,07:10,0.527,0.801,0.494,1.007,0.725,0.320,0.573,0.531,�k,1.7,��
2023/11/04,07:20,0.527,0.800,0.494,1.005,0.726,0.319,0.572,0.533,�k�k��,2.2,��
2023/11/04,07:30,0.527,0.799,0.495,1.006,0.726,0.318,0.574,0.531,�k�k��,3.8,��
2023/11/04,07:40,0.528,0.802,0.495,1.003,0.726,0.319,0.574,0.532,�k��,4.2,��
2023/11/04,07:50,0.528,0.801,0.497,1.006,0.728,0.320,0.573,0.531,�k��,3.8,��
2023/11/04,08:00,0.529,0.802,0.495,1.007,0.727,0.320,0.574,0.532,�k��,5.3,��
2023/11/04,08:10,0.529,0.800,0.496,1.007,0.729,0.318,0.574,0.533,�k��,5.0,��
2023/11/04,08:20,0.529,0.801,0.496,1.005,0.727,0.320,0.573,0.532,�k��,4.6,��
2023/11/04,08:30,0.529,0.798,0.497,1.007,0.728,0.319,0.575,0.533,�k��,4.3,��
2023/11/04,08:40,0.529,0.799,0.496,1.006,0.728,0.319,0.573,0.531,�k��,2.6,��
2023/11/04,08:50,0.528,0.797,0.497,1.007,0.726,0.320,0.573,0.534,�k��,3.5,��
2023/11/04,09:00,0.528,0.801,0.498,1.006,0.730,0.321,0.573,0.533,�k�k��,2.5,��
2023/11/04,09:10,0.528,0.800,0.498,1.008,0.728,0.320,0.573,0.533,�k��,3.6,��
2023/11/04,09:20,0.528,0.806,0.498,1.007,0.729,0.320,0.574,0.532,�k�k��,2.5,��
2023/11/04,09:30,0.529,0.801,0.497,1.007,0.727,0.320,0.573,0.534,�k�k��,2.6,��
2023/11/04,09:40,0.528,0.799,0.497,1.008,0.728,0.319,0.573,0.535,�k�k��,3.2,��
2023/11/04,09:50,0.527,0.800,0.497,1.008,0.728,0.319,0.574,0.532,�k�k��,2.6,��
2023/11/04,10:00,0.527,0.799,0.499,1.009,0.728,0.319,0.574,0.533,�k�k��,3.2,��
2023/11/04,10:10,0.528,0.798,0.496,1.008,0.728,0.319,0.574,0.532,�k�k��,2.8,��
2023/11/04,10:20,0.530,0.799,0.496,1.011,0.728,0.320,0.574,0.532,�k�k��,2.6,��
2023/11/04,10:30,0.529,0.801,0.495,1.009,0.729,0.318,0.573,0.531,�k�k��,2.5,��
2023/11/04,10:40,0.529,0.801,0.495,1.009,0.730,0.319,0.572,0.533,�k�k��,1.9,��
2023/11/04,10:50,0.528,0.800,0.494,1.010,0.727,0.319,0.574,0.532,�k,2.6,��
2023/11/04,11:00,0.529,0.799,0.496,1.009,0.728,0.319,0.574,0.531,�k��,2.0,��
2023/11/04,11:10,0.529,0.799,0.495,1.008,0.727,0.321,0.572,0.531,���k��,0.9,��
2023/11/04,11:20,0.530,0.801,0.498,1.007,0.729,0.319,0.571,0.531,���쐼,0.9,��
2023/11/04,11:30,0.530,0.801,0.496,1.009,0.730,0.319,0.573,0.531,���쐼,0.8,��
2023/11/04,11:40,0.531,0.800,0.497,1.008,0.729,0.320,0.573,0.529,�k�k��,0.9,��
2023/11/04,11:50,0.528,0.803,0.498,1.009,0.731,0.319,0.574,0.532,�k�k��,1.5,��
2023/11/04,12:00,0.530,0.800,0.495,1.008,0.730,0.319,0.572,0.530,�k�k��,1.2,��
2023/11/04,12:10,0.529,0.803,0.498,1.009,0.728,0.319,0.574,0.531,�k,1.7,��
2023/11/04,12:20,0.529,0.799,0.495,1.010,0.729,0.320,0.573,0.532,�k��,3.3,��
2023/11/04,12:30,0.531,0.803,0.496,1.009,0.729,0.319,0.571,0.531,�k��,2.9,��
2023/11/04,12:40,0.527,0.802,0.496,1.010,0.729,0.318,0.573,0.530,�k�k��,2.3,��
2023/11/04,12:50,0.530,0.800,0.496,1.009,0.730,0.319,0.574,0.531,�k�k��,3.2,��
2023/11/04,13:00,0.531,0.803,0.497,1.009,0.729,0.320,0.574,0.533,�k�k��,3.2,��
2023/11/04,13:10,0.529,0.802,0.496,1.009,0.728,0.319,0.573,0.532,�k�k��,4.4,��
2023/11/04,13:20,0.529,0.800,0.495,1.010,0.730,0.318,0.574,0.531,�k�k��,6.1,��
2023/11/04,13:30,0.528,0.802,0.497,1.010,0.727,0.319,0.572,0.531,�k�k��,6.3,��
2023/11/04,13:40,0.528,0.802,0.498,1.010,0.730,0.320,0.572,0.531,�k�k��,7.0,��
2023/11/04,13:50,0.528,0.802,0.497,1.009,0.727,0.319,0.573,0.532,�k,5.7,��
2023/11/04,14:00,0.529,0.802,0.495,1.008,0.729,0.318,0.572,0.530,�k�k��,5.4,��
2023/11/04,14:10,0.528,0.802,0.495,1.009,0.731,0.319,0.574,0.529,�k,4.6,��
2023/11/04,14:20,0.529,0.802,0.495,1.012,0.728,0.320,0.573,0.532,�k�k��,4.5,��
2023/11/04,14:30,0.528,0.804,0.496,1.010,0.730,0.318,0.575,0.532,�k�k��,4.1,��
2023/11/04,14:40,0.528,0.804,0.495,1.011,0.730,0.319,0.573,0.530,�k,3.7,��
2023/11/04,14:50,0.527,0.802,0.495,1.010,0.729,0.318,0.573,0.531,�k�k��,3.3,��
2023/11/04,15:00,0.528,0.804,0.497,1.009,0.729,0.319,0.572,0.532,�k,2.8,��
2023/11/04,15:10,0.527,0.802,0.495,1.012,0.728,0.320,0.574,0.530,�k�k��,3.0,��
2023/11/04,15:20,0.528,0.802,0.495,1.009,0.729,0.318,0.572,0.532,�k�k��,2.6,��
2023/11/04,15:30,0.528,0.802,0.495,1.010,0.728,0.319,0.573,0.532,�k�k��,2.6,��
2023/11/04,15:40,0.528,0.803,0.496,1.010,0.729,0.319,0.572,0.531,�k�k��,2.3,��
2023/11/04,15:50,0.526,0.804,0.496,1.008,0.728,0.319,0.574,0.532,�k�k��,1.7,��
2023/11/04,16:00,0.529,0.803,0.497,1.010,0.730,0.317,0.572,0.532,�k�k��,1.5,��
2023/11/04,16:10,0.529,0.803,0.497,1.007,0.732,0.319,0.572,0.531,���k��,1.2,��
2023/11/04,16:20,0.529,0.805,0.497,1.010,0.730,0.319,0.573,0.531,��,1.2,��
2023/11/04,16:30,0.529,0.806,0.498,1.009,0.732,0.319,0.572,0.530,���쓌,0.6,��
2023/11/04,16:40,0.529,0.804,0.497,1.011,0.732,0.320,0.572,0.533,��,0.6,��
2023/11/04,16:50,0.528,0.806,0.497,1.011,0.731,0.319,0.571,0.532,��쓌,0.9,��
2023/11/04,17:00,0.530,0.805,0.497,1.009,0.732,0.319,0.573,0.533,�쓌,1.1,��
2023/11/04,17:10,0.530,0.805,0.498,1.009,0.730,0.319,0.573,0.533,�쓌,0.6,��
2023/11/04,17:20,0.531,0.805,0.497,1.009,0.732,0.319,0.572,0.533,��쓌,1.2,��
2023/11/04,17:30,0.530,0.803,0.498,1.009,0.731,0.320,0.573,0.534,��,3.0,��
2023/11/04,17:40,0.530,0.801,0.499,1.010,0.731,0.321,0.573,0.533,��,2.8,��
2023/11/04,17:50,0.530,0.805,0.499,1.009,0.732,0.319,0.573,0.533,��쐼,0.6,��
2023/11/04,18:00,0.529,0.804,0.498,1.007,0.732,0.320,0.575,0.533,�쐼,0.9,��
2023/11/04,18:10,0.530,0.806,0.497,1.009,0.732,0.319,0.573,0.534,��쐼,0.9,��
2023/11/04,18:20,0.530,0.803,0.497,1.009,0.730,0.320,0.573,0.532,��,1.1,��
2023/11/04,18:30,0.530,0.801,0.499,1.008,0.731,0.320,0.573,0.533,��,0.8,��
2023/11/04,18:40,0.529,0.804,0.497,1.010,0.731,0.320,0.573,0.532,��쐼,2.6,��
2023/11/04,18:50,0.530,0.805,0.498,1.009,0.732,0.320,0.574,0.533,��쐼,3.6,��
2023/11/04,19:00,0.531,0.804,0.498,1.008,0.731,0.319,0.573,0.533,��,3.5,��
2023/11/04,19:10,0.530,0.804,0.497,1.011,0.732,0.320,0.573,0.533,��,3.5,��
2023/11/04,19:20,0.531,0.806,0.497,1.010,0.730,0.321,0.575,0.534,��쐼,3.6,��
2023/11/04,19:30,0.531,0.804,0.498,1.009,0.731,0.321,0.574,0.531,��쐼,2.9,��
2023/11/04,19:40,0.529,0.803,0.498,1.011,0.732,0.320,0.576,0.532,��쐼,2.8,��
2023/11/04,19:50,0.530,0.803,0.498,1.009,0.731,0.320,0.574,0.531,��쐼,2.8,��
2023/11/04,20:00,0.530,0.804,0.498,1.008,0.730,0.319,0.573,0.532,��쐼,2.3,��
2023/11/04,20:10,0.531,0.805,0.497,1.009,0.732,0.319,0.573,0.533,��쐼,1.9,��
2023/11/04,20:20,0.530,0.804,0.496,1.010,0.730,0.320,0.574,0.531,��,1.2,��
2023/11/04,20:30,0.531,0.805,0.496,1.008,0.729,0.321,0.574,0.533,��,1.5,��
2023/11/04,20:40,0.530,0.806,0.498,1.006,0.728,0.320,0.573,0.532,��,1.2,��
2023/11/04,20:50,0.530,0.806,0.498,1.008,0.730,0.319,0.574,0.533,-,CALM,��
2023/11/04,21:00,0.530,0.806,0.498,1.010,0.730,0.319,0.572,0.534,-,CALM,��
2023/11/04,21:10,0.531,0.804,0.498,1.010,0.730,0.319,0.574,0.531,��,0.6,��
2023/11/04,21:20,0.530,0.804,0.497,1.011,0.731,0.319,0.573,0.534,�k,0.6,��
2023/11/04,21:30,0.531,0.807,0.497,1.010,0.731,0.319,0.572,0.535,�k,2.0,��
2023/11/04,21:40,0.530,0.807,0.498,1.011,0.732,0.321,0.573,0.532,�k�k��,3.1,��
2023/11/04,21:50,0.531,0.804,0.498,1.009,0.732,0.322,0.573,0.534,�k�k��,3.6,��
2023/11/04,22:00,0.531,0.805,0.500,1.009,0.734,0.321,0.574,0.534,�k�k��,3.4,��
2023/11/04,22:10,0.531,0.804,0.498,1.009,0.734,0.321,0.575,0.533,�k,3.4,��
2023/11/04,22:20,0.531,0.805,0.497,1.010,0.730,0.320,0.573,0.534,�k,3.3,��
2023/11/04,22:30,0.532,0.806,0.499,1.010,0.731,0.319,0.573,0.532,�k,4.4,��
2023/11/04,22:40,0.532,0.805,0.498,1.009,0.733,0.320,0.574,0.533,�k,5.1,��
2023/11/04,22:50,0.531,0.805,0.499,1.011,0.732,0.320,0.574,0.533,�k,5.4,��
2023/11/04,23:00,0.530,0.806,0.498,1.008,0.732,0.321,0.572,0.533,�k,5.4,�L
2023/11/04,23:10,0.532,0.806,0.498,1.010,0.731,0.320,0.573,0.532,�k�k��,5.7,��
2023/11/04,23:20,0.531,0.805,0.497,1.010,0.730,0.320,0.573,0.532,�k�k��,6.1,��
2023/11/04,23:30,0.530,0.805,0.499,1.011,0.732,0.320,0.574,0.532,�k�k��,6.1,��
2023/11/04,23:40,0.530,0.805,0.497,1.011,0.731,0.320,0.573,0.532,�k�k��,5.8,��
2023/11/04,23:50,0.532,0.805,0.498,1.011,0.731,0.320,0.572,0.533,�k�k��,5.7,��
